• In Romania
  • List of Countries
  • For 7 days
  • Water Temperature
  • Satellite Maps
  • Weather Map
  • Weather Widgets
  • user-avatar
    Login

    Hourly Weather Perth

    Today, 26 March, Sunday

    Time Temperature Precipitation Wind Pressure Humidity
    00:00 +18°C° 0 mm 4 mps 756 mmHg 89%
    01:00 +19°C° 0 mm 5 mps 756 mmHg 83%
    02:00 +19°C° 0 mm 5 mps 756 mmHg 78%
    03:00 +19°C° 0.1 mm 5 mps 756 mmHg 79%
    04:00 +19°C° 0.1 mm 6 mps 756 mmHg 80%
    05:00 +19°C° 0.1 mm 6 mps 756 mmHg 80%
    06:00 +19°C° 0 mm 6 mps 757 mmHg 76%
    07:00 +19°C° 0 mm 6 mps 757 mmHg 72%
    08:00 +20°C° 0 mm 7 mps 758 mmHg 67%
    09:00 +20°C° 0 mm 7 mps 758 mmHg 61%
    10:00 +21°C° 0 mm 7 mps 758 mmHg 54%
    11:00 +21°C° 0 mm 7 mps 759 mmHg 48%
    12:00 +21°C° 0 mm 7 mps 759 mmHg 47%
    13:00 +22°C° 0 mm 7 mps 759 mmHg 47%
    14:00 +22°C° 0 mm 7 mps 759 mmHg 45%
    15:00 +21°C° 0 mm 7 mps 760 mmHg 47%
    16:00 +20°C° 0 mm 6 mps 760 mmHg 49%
    17:00 +20°C° 0 mm 6 mps 760 mmHg 51%
    18:00 +17°C° 0 mm 5 mps 761 mmHg 57%
    19:00 +17°C° 0 mm 4 mps 762 mmHg 63%
    20:00 +15°C° 0 mm 4 mps 763 mmHg 70%
    21:00 +14°C° 0 mm 3 mps 763 mmHg 72%
    22:00 +14°C° 0 mm 3 mps 763 mmHg 74%
    23:00 +13°C° 0 mm 3 mps 763 mmHg 76%

    Tomorrow, 27 March, Monday

    Time Temperature Precipitation Wind Pressure Humidity
    00:00 +13°C° 0 mm 2 mps 763 mmHg 77%
    01:00 +13°C° 0 mm 2 mps 764 mmHg 79%
    02:00 +12°C° 0 mm 2 mps 764 mmHg 80%
    03:00 +12°C° 0 mm 2 mps 764 mmHg 81%
    04:00 +12°C° 0 mm 1 mps 764 mmHg 82%
    05:00 +11°C° 0 mm 1 mps 765 mmHg 83%
    06:00 +13°C° 0 mm 1 mps 765 mmHg 76%
    07:00 +14°C° 0 mm 1 mps 765 mmHg 69%
    08:00 +16°C° 0 mm 1 mps 765 mmHg 62%
    09:00 +19°C° 0 mm 1 mps 765 mmHg 53%
    10:00 +21°C° 0 mm 1 mps 765 mmHg 44%
    11:00 +24°C° 0 mm 1 mps 765 mmHg 35%
    12:00 +25°C° 0 mm 2 mps 764 mmHg 33%
    13:00 +26°C° 0 mm 2 mps 764 mmHg 30%
    14:00 +27°C° 0 mm 3 mps 763 mmHg 27%
    15:00 +26°C° 0 mm 3 mps 763 mmHg 31%
    16:00 +25°C° 0 mm 4 mps 762 mmHg 35%
    17:00 +25°C° 0 mm 4 mps 762 mmHg 39%
    18:00 +21°C° 0 mm 4 mps 762 mmHg 49%
    19:00 +19°C° 0 mm 4 mps 762 mmHg 59%
    20:00 +17°C° 0 mm 4 mps 762 mmHg 69%
    21:00 +17°C° 0 mm 4 mps 762 mmHg 73%
    22:00 +16°C° 0 mm 3 mps 762 mmHg 76%
    23:00 +14°C° 0 mm 3 mps 763 mmHg 79%

    Day after tomorrow, 28 March, Tuesday

    Time Temperature Precipitation Wind Pressure Humidity
    00:00 +14°C° 0 mm 3 mps 763 mmHg 80%
    01:00 +14°C° 0 mm 3 mps 762 mmHg 81%
    02:00 +13°C° 0 mm 3 mps 762 mmHg 82%
    03:00 +13°C° 0 mm 3 mps 762 mmHg 83%
    04:00 +13°C° 0 mm 3 mps 762 mmHg 84%
    05:00 +12°C° 0 mm 3 mps 762 mmHg 85%
    06:00 +13°C° 0 mm 3 mps 762 mmHg 80%
    07:00 +14°C° 0 mm 3 mps 762 mmHg 75%
    08:00 +16°C° 0 mm 3 mps 763 mmHg 70%
    09:00 +19°C° 0 mm 3 mps 762 mmHg 61%
    10:00 +21°C° 0 mm 3 mps 762 mmHg 52%
    11:00 +25°C° 0 mm 3 mps 762 mmHg 42%
    12:00 +26°C° 0 mm 3 mps 762 mmHg 41%
    13:00 +27°C° 0 mm 4 mps 761 mmHg 39%
    14:00 +28°C° 0 mm 5 mps 761 mmHg 38%
    15:00 +27°C° 0 mm 5 mps 761 mmHg 42%
    16:00 +26°C° 0 mm 5 mps 761 mmHg 47%
    17:00 +25°C° 0 mm 5 mps 761 mmHg 51%
    18:00 +22°C° 0 mm 5 mps 761 mmHg 56%
    19:00 +20°C° 0 mm 5 mps 762 mmHg 60%
    20:00 +19°C° 0 mm 5 mps 763 mmHg 65%
    21:00 +17°C° 0 mm 5 mps 763 mmHg 66%
    22:00 +17°C° 0 mm 5 mps 763 mmHg 67%
    23:00 +16°C° 0 mm 5 mps 764 mmHg 68%

    29 March, Wednesday

    Time Temperature Precipitation Wind Pressure Humidity
    00:00 +16°C° 0 mm 5 mps 764 mmHg 72%
    01:00 +15°C° 0 mm 5 mps 764 mmHg 76%
    02:00 +15°C° 0 mm 5 mps 764 mmHg 80%
    03:00 +14°C° 0 mm 5 mps 764 mmHg 81%
    04:00 +14°C° 0 mm 5 mps 764 mmHg 82%
    05:00 +14°C° 0 mm 5 mps 765 mmHg 83%
    06:00 +14°C° 0 mm 5 mps 765 mmHg 78%
    07:00 +15°C° 0 mm 6 mps 766 mmHg 73%
    08:00 +15°C° 0 mm 6 mps 766 mmHg 68%
    09:00 +17°C° 0 mm 6 mps 766 mmHg 59%
    10:00 +20°C° 0 mm 6 mps 766 mmHg 49%
    11:00 +21°C° 0 mm 5 mps 766 mmHg 40%
    12:00 +23°C° 0 mm 5 mps 766 mmHg 36%
    13:00 +25°C° 0 mm 5 mps 765 mmHg 32%
    14:00 +26°C° 0 mm 5 mps 765 mmHg 28%
    15:00 +26°C° 0 mm 5 mps 764 mmHg 28%
    16:00 +26°C° 0 mm 4 mps 764 mmHg 28%
    17:00 +25°C° 0 mm 4 mps 764 mmHg 28%
    18:00 +23°C° 0 mm 4 mps 764 mmHg 31%
    19:00 +21°C° 0 mm 4 mps 765 mmHg 35%
    20:00 +19°C° 0 mm 4 mps 765 mmHg 39%
    21:00 +19°C° 0 mm 4 mps 766 mmHg 40%
    22:00 +19°C° 0 mm 5 mps 766 mmHg 42%
    23:00 +19°C° 0 mm 5 mps 766 mmHg 44%

    30 March, Thursday

    Time Temperature Precipitation Wind Pressure Humidity
    00:00 +17°C° 0 mm 5 mps 766 mmHg 46%
    01:00 +17°C° 0 mm 6 mps 766 mmHg 47%
    02:00 +16°C° 0 mm 6 mps 766 mmHg 49%
    03:00 +16°C° 0 mm 5 mps 766 mmHg 51%
    04:00 +15°C° 0 mm 5 mps 766 mmHg 54%
    05:00 +15°C° 0 mm 5 mps 766 mmHg 56%
    06:00 +15°C° 0 mm 5 mps 766 mmHg 55%
    07:00 +16°C° 0 mm 5 mps 766 mmHg 54%
    08:00 +16°C° 0 mm 5 mps 766 mmHg 53%
    09:00 +20°C° 0 mm 4 mps 766 mmHg 47%
    10:00 +22°C° 0 mm 4 mps 766 mmHg 41%
    11:00 +25°C° 0 mm 3 mps 766 mmHg 35%
    12:00 +27°C° 0 mm 3 mps 765 mmHg 31%
    13:00 +29°C° 0 mm 3 mps 765 mmHg 28%
    14:00 +30°C° 0 mm 2 mps 764 mmHg 24%
    15:00 +30°C° 0 mm 3 mps 764 mmHg 26%
    16:00 +29°C° 0 mm 3 mps 764 mmHg 27%
    17:00 +29°C° 0 mm 3 mps 764 mmHg 28%
    18:00 +26°C° 0 mm 4 mps 764 mmHg 34%
    19:00 +22°C° 0 mm 4 mps 765 mmHg 40%
    20:00 +20°C° 0 mm 4 mps 765 mmHg 46%
    21:00 +19°C° 0 mm 3 mps 765 mmHg 44%
    22:00 +19°C° 0 mm 3 mps 765 mmHg 42%
    23:00 +19°C° 0 mm 3 mps 765 mmHg 40%

    31 March, Friday

    Time Temperature Precipitation Wind Pressure Humidity
    00:00 +18°C° 0 mm 3 mps 765 mmHg 40%
    01:00 +18°C° 0 mm 3 mps 765 mmHg 39%
    02:00 +18°C° 0 mm 3 mps 765 mmHg 39%
    03:00 +17°C° 0 mm 3 mps 765 mmHg 40%
    04:00 +17°C° 0 mm 3 mps 765 mmHg 41%
    05:00 +17°C° 0 mm 3 mps 765 mmHg 41%
    06:00 +18°C° 0 mm 3 mps 765 mmHg 40%
    07:00 +18°C° 0 mm 3 mps 766 mmHg 39%
    08:00 +19°C° 0 mm 3 mps 766 mmHg 38%
    09:00 +22°C° 0 mm 3 mps 766 mmHg 33%
    10:00 +26°C° 0 mm 3 mps 766 mmHg 28%
    11:00 +29°C° 0 mm 2 mps 766 mmHg 23%
    12:00 +30°C° 0 mm 3 mps 765 mmHg 22%
    13:00 +31°C° 0 mm 3 mps 764 mmHg 20%
    14:00 +33°C° 0 mm 3 mps 764 mmHg 18%
    15:00 +32°C° 0 mm 4 mps 764 mmHg 19%
    16:00 +30°C° 0 mm 4 mps 764 mmHg 20%
    17:00 +30°C° 0 mm 4 mps 764 mmHg 21%
    18:00 +28°C° 0 mm 4 mps 764 mmHg 24%
    19:00 +25°C° 0 mm 4 mps 764 mmHg 27%
    20:00 +22°C° 0 mm 3 mps 765 mmHg 30%
    21:00 +22°C° 0 mm 4 mps 765 mmHg 31%
    22:00 +21°C° 0 mm 4 mps 765 mmHg 32%
    23:00 +21°C° 0 mm 4 mps 765 mmHg 32%
    Show more